Time,TemperatureF,DewpointF,PressureIn,WindDirection,WindDirectionDegrees,WindSpeedMPH,WindSpeedGustMPH,Humidity,HourlyPrecipIn,Conditions,Clouds,dailyrainin,SoftwareType,DateUTC
2013-10-07 00:00:00,53.6,49.5,27.79,South,180,0.0,0.0,86,0.00,,,0.00,Weather View 32 v70,2013-10-07 04:00:00,
2013-10-07 00:01:00,53.6,49.5,27.79,South,180,0.0,0.0,86,0.00,,,0.00,Weather View 32 v70,2013-10-07 04:01:00,
2013-10-07 00:06:00,53.6,49.5,27.79,South,180,0.0,0.0,86,0.00,,,0.00,Weather View 32 v70,2013-10-07 04:06:00,
2013-10-07 00:11:00,53.2,49.2,27.76,South,180,0.0,0.0,86,0.00,,,0.00,Weather View 32 v70,2013-10-07 04:11:00,
2013-10-07 00:16:00,53.1,49.0,27.76,South,180,0.0,0.0,86,0.00,,,0.00,Weather View 32 v70,2013-10-07 04:16:00,
2013-10-07 00:21:00,53.1,49.0,27.76,South,180,0.0,0.0,86,0.00,,,0.00,Weather View 32 v70,2013-10-07 04:21:00,
2013-10-07 00:26:00,52.9,48.5,27.76,South,180,0.0,0.0,85,0.00,,,0.00,Weather View 32 v70,2013-10-07 04:26:00,
2013-10-07 00:31:00,52.7,48.6,27.76,South,180,0.0,0.0,86,0.00,,,0.00,Weather View 32 v70,2013-10-07 04:31:00,
2013-10-07 00:36:00,52.7,48.6,27.76,South,180,0.0,0.0,86,0.00,,,0.00,Weather View 32 v70,2013-10-07 04:36:00,
2013-10-07 00:41:00,52.5,48.4,27.76,South,180,0.0,0.0,86,0.00,,,0.00,Weather View 32 v70,2013-10-07 04:41:00,
2013-10-07 00:46:00,52.3,48.3,27.76,South,180,0.0,0.0,86,0.00,,,0.00,Weather View 32 v70,2013-10-07 04:46:00,
2013-10-07 00:51:00,52.2,48.1,27.76,South,180,0.0,0.0,86,0.00,,,0.00,Weather View 32 v70,2013-10-07 04:51:00,
2013-10-07 00:56:00,52.2,48.1,27.73,South,180,0.0,0.0,86,0.00,,,0.00,Weather View 32 v70,2013-10-07 04:56:00,
2013-10-07 01:01:00,52.2,48.1,27.73,South,180,0.0,0.0,86,0.00,,,0.00,Weather View 32 v70,2013-10-07 05:01:00,
2013-10-07 01:06:00,52.2,48.1,27.73,South,180,0.0,0.0,86,0.00,,,0.00,Weather View 32 v70,2013-10-07 05:06:00,
2013-10-07 01:11:00,52.0,47.9,27.73,South,180,0.0,0.0,86,0.00,,,0.00,Weather View 32 v70,2013-10-07 05:11:00,
2013-10-07 01:16:00,52.0,47.9,27.73,South,180,0.0,0.0,86,0.00,,,0.00,Weather View 32 v70,2013-10-07 05:16:00,
2013-10-07 01:21:00,52.0,48.2,27.73,South,180,0.0,0.0,87,0.00,,,0.00,Weather View 32 v70,2013-10-07 05:21:00,
2013-10-07 01:26:00,52.0,48.2,27.73,South,180,0.0,0.0,87,0.00,,,0.00,Weather View 32 v70,2013-10-07 05:26:00,
2013-10-07 01:31:00,52.2,48.4,27.73,South,180,0.0,0.0,87,0.00,,,0.00,Weather View 32 v70,2013-10-07 05:31:00,
2013-10-07 01:36:00,52.2,48.7,27.73,South,180,0.0,0.0,88,0.00,,,0.00,Weather View 32 v70,2013-10-07 05:36:00,
2013-10-07 01:41:00,52.2,48.7,27.73,South,190,0.0,0.0,88,0.00,,,0.00,Weather View 32 v70,2013-10-07 05:41:00,
2013-10-07 01:46:00,52.2,49.0,27.73,South,189,0.0,0.0,89,0.00,,,0.00,Weather View 32 v70,2013-10-07 05:46:00,
2013-10-07 01:51:00,52.3,49.2,27.73,South,190,0.0,3.0,89,0.00,,,0.00,Weather View 32 v70,2013-10-07 05:51:00,
2013-10-07 01:56:00,52.3,49.5,27.73,SSW,192,0.0,3.0,90,0.00,,,0.00,Weather View 32 v70,2013-10-07 05:56:00,
2013-10-07 02:01:00,52.5,49.7,27.73,SSW,192,0.0,3.0,90,0.00,,,0.00,Weather View 32 v70,2013-10-07 06:01:00,
2013-10-07 02:06:00,52.5,49.7,27.73,SSW,206,0.0,3.0,90,0.00,,,0.00,Weather View 32 v70,2013-10-07 06:06:00,
2013-10-07 02:11:00,52.5,49.4,27.73,SSW,196,0.0,3.0,89,0.00,,,0.00,Weather View 32 v70,2013-10-07 06:11:00,
2013-10-07 02:16:00,52.5,48.8,27.73,SSW,196,0.0,3.0,87,0.00,,,0.00,Weather View 32 v70,2013-10-07 06:16:00,
2013-10-07 02:21:00,52.5,48.4,27.73,SSW,210,0.0,3.0,86,0.00,,,0.00,Weather View 32 v70,2013-10-07 06:21:00,
2013-10-07 02:26:00,52.5,48.1,27.73,SSW,200,0.0,3.0,85,0.00,,,0.00,Weather View 32 v70,2013-10-07 06:26:00,
2013-10-07 02:31:00,52.5,48.1,27.73,NNW,341,0.0,3.0,85,0.00,,,0.00,Weather View 32 v70,2013-10-07 06:31:00,
2013-10-07 02:36:00,52.5,47.8,27.73,SSW,198,0.0,3.0,84,0.00,,,0.00,Weather View 32 v70,2013-10-07 06:36:00,
2013-10-07 02:41:00,52.5,47.8,27.76,SW,232,0.0,3.0,84,0.00,,,0.00,Weather View 32 v70,2013-10-07 06:41:00,
2013-10-07 02:46:00,52.5,47.5,27.76,South,191,0.0,3.0,83,0.00,,,0.00,Weather View 32 v70,2013-10-07 06:46:00,
2013-10-07 02:51:00,52.3,47.3,27.76,SSW,211,0.0,3.0,83,0.00,,,0.00,Weather View 32 v70,2013-10-07 06:51:00,
2013-10-07 02:56:00,52.3,47.3,27.73,SSW,213,0.0,3.0,83,0.00,,,0.00,Weather View 32 v70,2013-10-07 06:56:00,
2013-10-07 03:01:00,52.3,47.0,27.73,SSW,207,0.0,3.0,82,0.00,,,0.00,Weather View 32 v70,2013-10-07 07:01:00,
2013-10-07 03:06:00,52.3,46.7,27.73,SSW,195,0.0,3.0,81,0.00,,,0.00,Weather View 32 v70,2013-10-07 07:06:00,
2013-10-07 03:11:00,52.2,46.2,27.73,SSW,213,0.0,3.0,80,0.00,,,0.00,Weather View 32 v70,2013-10-07 07:11:00,
2013-10-07 03:16:00,52.2,46.2,27.73,ENE,70,0.0,3.0,80,0.00,,,0.00,Weather View 32 v70,2013-10-07 07:16:00,
2013-10-07 03:21:00,52.2,45.8,27.73,SSW,195,3.0,4.0,79,0.00,,,0.00,Weather View 32 v70,2013-10-07 07:21:00,
2013-10-07 03:26:00,52.0,45.0,27.73,SW,231,0.0,4.0,77,0.00,,,0.00,Weather View 32 v70,2013-10-07 07:26:00,
2013-10-07 03:31:00,52.0,45.0,27.73,SW,236,0.0,4.0,77,0.00,,,0.00,Weather View 32 v70,2013-10-07 07:31:00,
2013-10-07 03:36:00,51.8,44.8,27.73,SW,221,0.0,4.0,77,0.00,,,0.00,Weather View 32 v70,2013-10-07 07:36:00,
2013-10-07 03:41:00,51.8,44.5,27.73,SW,217,0.0,4.0,76,0.00,,,0.00,Weather View 32 v70,2013-10-07 07:41:00,
2013-10-07 03:46:00,51.8,44.8,27.73,South,188,0.0,4.0,77,0.00,,,0.00,Weather View 32 v70,2013-10-07 07:46:00,
2013-10-07 03:51:00,51.8,44.8,27.73,South,188,0.0,4.0,77,0.00,,,0.00,Weather View 32 v70,2013-10-07 07:51:00,
2013-10-07 03:56:00,51.8,45.1,27.73,SW,228,0.0,4.0,78,0.00,,,0.00,Weather View 32 v70,2013-10-07 07:56:00,
2013-10-07 04:01:00,51.8,45.1,27.73,SW,232,0.0,4.0,78,0.00,,,0.00,Weather View 32 v70,2013-10-07 08:01:00,
2013-10-07 04:06:00,51.8,45.5,27.73,West,281,0.0,4.0,79,0.00,,,0.00,Weather View 32 v70,2013-10-07 08:06:00,
2013-10-07 04:11:00,51.4,44.5,27.73,South,177,3.0,4.0,77,0.00,,,0.00,Weather View 32 v70,2013-10-07 08:11:00,
2013-10-07 04:16:00,51.3,42.9,27.73,SSW,213,0.0,4.0,73,0.00,,,0.00,Weather View 32 v70,2013-10-07 08:16:00,
2013-10-07 04:21:00,51.4,43.1,27.73,South,179,0.0,4.0,73,0.00,,,0.00,Weather View 32 v70,2013-10-07 08:21:00,
2013-10-07 04:26:00,51.4,43.4,27.73,South,189,0.0,4.0,74,0.00,,,0.00,Weather View 32 v70,2013-10-07 08:26:00,
2013-10-07 04:31:00,51.3,43.2,27.73,West,281,0.0,4.0,74,0.00,,,0.00,Weather View 32 v70,2013-10-07 08:31:00,
2013-10-07 04:36:00,51.3,43.6,27.73,SSW,208,0.0,4.0,75,0.00,,,0.00,Weather View 32 v70,2013-10-07 08:36:00,
2013-10-07 04:41:00,51.1,42.7,27.73,SSW,199,0.0,4.0,73,0.00,,,0.00,Weather View 32 v70,2013-10-07 08:41:00,
2013-10-07 04:46:00,50.9,41.8,27.73,SSW,197,0.0,4.0,71,0.00,,,0.00,Weather View 32 v70,2013-10-07 08:46:00,
2013-10-07 04:51:00,50.9,41.8,27.73,South,172,0.0,4.0,71,0.00,,,0.00,Weather View 32 v70,2013-10-07 08:51:00,
2013-10-07 04:56:00,50.7,41.3,27.73,SSW,197,0.0,4.0,70,0.00,,,0.00,Weather View 32 v70,2013-10-07 08:56:00,
2013-10-07 05:01:00,50.4,39.8,27.73,SW,224,2.0,5.0,67,0.00,,,0.00,Weather View 32 v70,2013-10-07 09:01:00,
2013-10-07 05:06:00,50.2,39.2,27.73,NW,321,0.0,5.0,66,0.00,,,0.00,Weather View 32 v70,2013-10-07 09:06:00,
2013-10-07 05:11:00,50.0,39.1,27.73,SSW,205,0.0,5.0,66,0.00,,,0.00,Weather View 32 v70,2013-10-07 09:11:00,
2013-10-07 05:16:00,49.8,38.9,27.73,SSW,197,4.0,5.0,66,0.00,,,0.00,Weather View 32 v70,2013-10-07 09:16:00,
2013-10-07 05:21:00,49.5,38.6,27.73,SSW,196,2.0,5.0,66,0.00,,,0.00,Weather View 32 v70,2013-10-07 09:21:00,
2013-10-07 05:26:00,49.3,38.8,27.73,SSW,211,0.0,5.0,67,0.00,,,0.00,Weather View 32 v70,2013-10-07 09:26:00,
2013-10-07 05:31:00,49.1,39.0,27.73,SSW,209,0.0,5.0,68,0.00,,,0.00,Weather View 32 v70,2013-10-07 09:31:00,
2013-10-07 05:36:00,48.7,37.5,27.73,SSW,203,0.0,5.0,65,0.00,,,0.00,Weather View 32 v70,2013-10-07 09:36:00,
2013-10-07 05:41:00,48.6,37.7,27.73,SSW,200,0.0,5.0,66,0.00,,,0.00,Weather View 32 v70,2013-10-07 09:41:00,
2013-10-07 05:46:00,48.4,37.9,27.73,SSW,204,0.0,5.0,67,0.00,,,0.00,Weather View 32 v70,2013-10-07 09:46:00,
2013-10-07 05:51:00,48.2,37.4,27.73,SW,214,2.0,5.0,66,0.00,,,0.00,Weather View 32 v70,2013-10-07 09:51:00,
2013-10-07 05:56:00,47.8,37.0,27.73,South,190,0.0,5.0,66,0.00,,,0.00,Weather View 32 v70,2013-10-07 09:56:00,
2013-10-07 06:01:00,47.7,36.8,27.73,NW,307,0.0,5.0,66,0.00,,,0.00,Weather View 32 v70,2013-10-07 10:01:00,
2013-10-07 06:06:00,47.5,36.3,27.73,SSW,203,2.0,4.0,65,0.00,,,0.00,Weather View 32 v70,2013-10-07 10:06:00,
2013-10-07 06:11:00,47.3,36.1,27.73,South,187,0.0,4.0,65,0.00,,,0.00,Weather View 32 v70,2013-10-07 10:11:00,
2013-10-07 06:16:00,47.1,35.9,27.73,SSW,197,3.0,4.0,65,0.00,,,0.00,Weather View 32 v70,2013-10-07 10:16:00,
2013-10-07 06:21:00,46.8,36.0,27.73,SSW,199,4.0,4.0,66,0.00,,,0.00,Weather View 32 v70,2013-10-07 10:21:00,
2013-10-07 06:26:00,46.8,36.4,27.73,SSW,198,3.0,4.0,67,0.00,,,0.00,Weather View 32 v70,2013-10-07 10:26:00,
2013-10-07 06:31:00,46.6,36.6,27.73,SSW,206,0.0,4.0,68,0.00,,,0.00,Weather View 32 v70,2013-10-07 10:31:00,
2013-10-07 06:36:00,46.4,36.4,27.73,SSW,204,0.0,4.0,68,0.00,,,0.00,Weather View 32 v70,2013-10-07 10:36:00,
2013-10-07 06:41:00,46.4,36.8,27.73,SSW,204,0.0,4.0,69,0.00,,,0.00,Weather View 32 v70,2013-10-07 10:41:00,
2013-10-07 06:46:00,46.2,37.0,27.73,SSW,208,3.0,4.0,70,0.00,,,0.00,Weather View 32 v70,2013-10-07 10:46:00,
2013-10-07 06:51:00,46.0,37.1,27.73,SSW,198,4.0,4.0,71,0.00,,,0.00,Weather View 32 v70,2013-10-07 10:51:00,
2013-10-07 06:56:00,45.9,37.0,27.76,SW,215,3.0,4.0,71,0.00,,,0.00,Weather View 32 v70,2013-10-07 10:56:00,
2013-10-07 07:01:00,45.7,36.4,27.76,SSW,199,3.0,4.0,70,0.00,,,0.00,Weather View 32 v70,2013-10-07 11:01:00,
2013-10-07 07:06:00,45.5,36.3,27.76,SSW,209,0.0,4.0,70,0.00,,,0.00,Weather View 32 v70,2013-10-07 11:06:00,
2013-10-07 07:11:00,45.7,36.8,27.76,SSW,207,2.0,4.0,71,0.00,,,0.00,Weather View 32 v70,2013-10-07 11:11:00,
2013-10-07 07:16:00,45.7,36.8,27.76,SSW,212,4.0,4.0,71,0.00,,,0.00,Weather View 32 v70,2013-10-07 11:16:00,
2013-10-07 07:21:00,45.7,37.2,27.76,South,185,0.0,4.0,72,0.00,,,0.00,Weather View 32 v70,2013-10-07 11:21:00,
2013-10-07 07:26:00,45.9,37.0,27.76,SSW,204,3.0,4.0,71,0.00,,,0.00,Weather View 32 v70,2013-10-07 11:26:00,
2013-10-07 07:31:00,45.9,37.0,27.76,WSW,255,3.0,4.0,71,0.00,,,0.00,Weather View 32 v70,2013-10-07 11:31:00,
2013-10-07 07:36:00,45.9,37.0,27.76,SSW,202,3.0,4.0,71,0.00,,,0.00,Weather View 32 v70,2013-10-07 11:36:00,
2013-10-07 07:41:00,45.9,36.6,27.76,WSW,238,0.0,4.0,70,0.00,,,0.00,Weather View 32 v70,2013-10-07 11:41:00,
2013-10-07 07:46:00,45.7,36.4,27.76,SSW,209,2.0,4.0,70,0.00,,,0.00,Weather View 32 v70,2013-10-07 11:46:00,
2013-10-07 07:51:00,45.5,36.3,27.76,SSW,198,0.0,4.0,70,0.00,,,0.00,Weather View 32 v70,2013-10-07 11:51:00,
2013-10-07 07:56:00,45.3,36.1,27.76,SSW,192,2.0,4.0,70,0.00,,,0.00,Weather View 32 v70,2013-10-07 11:56:00,
2013-10-07 08:01:00,45.3,36.5,27.76,SSW,192,3.0,4.0,71,0.00,,,0.00,Weather View 32 v70,2013-10-07 12:01:00,
2013-10-07 08:06:00,45.1,36.3,27.76,SSW,192,0.0,4.0,71,0.00,,,0.00,Weather View 32 v70,2013-10-07 12:06:00,
2013-10-07 08:11:00,45.1,36.3,27.76,SSW,203,3.0,4.0,71,0.00,,,0.00,Weather View 32 v70,2013-10-07 12:11:00,
2013-10-07 08:16:00,45.1,36.6,27.76,SSW,201,4.0,4.0,72,0.00,,,0.00,Weather View 32 v70,2013-10-07 12:16:00,
2013-10-07 08:21:00,45.1,36.6,27.76,SW,226,0.0,4.0,72,0.00,,,0.00,Weather View 32 v70,2013-10-07 12:21:00,
2013-10-07 08:26:00,45.3,37.2,27.76,SSW,199,4.0,4.0,73,0.00,,,0.00,Weather View 32 v70,2013-10-07 12:26:00,
2013-10-07 08:31:00,45.5,37.0,27.76,SSW,202,3.0,4.0,72,0.00,,,0.00,Weather View 32 v70,2013-10-07 12:31:00,
2013-10-07 08:36:00,45.7,36.8,27.76,South,190,4.0,4.0,71,0.00,,,0.00,Weather View 32 v70,2013-10-07 12:36:00,
2013-10-07 08:41:00,45.9,36.6,27.76,SSW,201,3.0,4.0,70,0.00,,,0.00,Weather View 32 v70,2013-10-07 12:41:00,
2013-10-07 08:46:00,46.0,36.8,27.76,SSW,195,0.0,4.0,70,0.00,,,0.00,Weather View 32 v70,2013-10-07 12:46:00,
2013-10-07 08:51:00,46.0,36.4,27.76,SSW,210,3.0,5.0,69,0.00,,,0.00,Weather View 32 v70,2013-10-07 12:51:00,
2013-10-07 08:56:00,46.0,35.7,27.76,SSW,193,5.0,6.0,67,0.00,,,0.00,Weather View 32 v70,2013-10-07 12:56:00,
2013-10-07 09:01:00,46.0,36.1,27.76,South,182,4.0,6.0,68,0.00,,,0.00,Weather View 32 v70,2013-10-07 13:01:00,
2013-10-07 09:06:00,46.0,36.1,27.76,South,190,4.0,6.0,68,0.00,,,0.00,Weather View 32 v70,2013-10-07 13:06:00,
2013-10-07 09:11:00,45.9,35.5,27.73,SSW,205,3.0,6.0,67,0.00,,,0.00,Weather View 32 v70,2013-10-07 13:11:00,
2013-10-07 09:16:00,46.0,36.4,27.73,South,181,3.0,6.0,69,0.00,,,0.00,Weather View 32 v70,2013-10-07 13:16:00,
2013-10-07 09:21:00,46.2,36.6,27.73,SSE,157,4.0,6.0,69,0.00,,,0.00,Weather View 32 v70,2013-10-07 13:21:00,
2013-10-07 09:26:00,46.4,36.8,27.76,SSW,196,3.0,6.0,69,0.00,,,0.00,Weather View 32 v70,2013-10-07 13:26:00,
2013-10-07 09:31:00,46.8,36.0,27.76,SSW,194,3.0,6.0,66,0.00,,,0.00,Weather View 32 v70,2013-10-07 13:31:00,
2013-10-07 09:36:00,46.9,35.4,27.76,West,275,3.0,7.0,64,0.00,,,0.00,Weather View 32 v70,2013-10-07 13:36:00,
2013-10-07 09:41:00,47.1,35.5,27.76,SSW,212,2.0,7.0,64,0.00,,,0.00,Weather View 32 v70,2013-10-07 13:41:00,
2013-10-07 09:46:00,47.1,35.2,27.76,SSW,207,4.0,7.0,63,0.00,,,0.00,Weather View 32 v70,2013-10-07 13:46:00,
2013-10-07 09:51:00,47.3,35.3,27.76,SSW,200,4.0,7.0,63,0.00,,,0.00,Weather View 32 v70,2013-10-07 13:51:00,
2013-10-07 09:56:00,47.3,36.1,27.76,SSW,196,2.0,7.0,65,0.00,,,0.00,Weather View 32 v70,2013-10-07 13:56:00,
2013-10-07 10:01:00,47.1,35.9,27.76,SSW,194,3.0,7.0,65,0.00,,,0.00,Weather View 32 v70,2013-10-07 14:01:00,
2013-10-07 10:06:00,47.3,36.5,27.76,SW,217,3.0,7.0,66,0.00,,,0.00,Weather View 32 v70,2013-10-07 14:06:00,
2013-10-07 10:11:00,47.3,36.1,27.76,South,191,3.0,7.0,65,0.00,,,0.00,Weather View 32 v70,2013-10-07 14:11:00,
2013-10-07 10:16:00,47.5,36.3,27.76,SSW,211,3.0,7.0,65,0.00,,,0.00,Weather View 32 v70,2013-10-07 14:16:00,
2013-10-07 10:21:00,47.5,36.3,27.76,SSW,202,3.0,7.0,65,0.00,,,0.00,Weather View 32 v70,2013-10-07 14:21:00,
2013-10-07 10:26:00,47.5,36.3,27.76,SW,224,4.0,7.0,65,0.00,,,0.00,Weather View 32 v70,2013-10-07 14:26:00,
2013-10-07 10:31:00,47.8,37.0,27.76,SSW,201,4.0,7.0,66,0.00,,,0.00,Weather View 32 v70,2013-10-07 14:31:00,
2013-10-07 10:36:00,48.0,36.8,27.76,SSW,192,3.0,6.0,65,0.00,,,0.00,Weather View 32 v70,2013-10-07 14:36:00,
2013-10-07 10:41:00,48.4,37.1,27.76,SSW,194,4.0,6.0,65,0.00,,,0.00,Weather View 32 v70,2013-10-07 14:41:00,
2013-10-07 10:46:00,48.9,37.7,27.76,SSW,198,4.0,6.0,65,0.00,,,0.00,Weather View 32 v70,2013-10-07 14:46:00,
2013-10-07 10:51:00,49.3,36.8,27.76,SW,217,3.0,5.0,62,0.00,,,0.00,Weather View 32 v70,2013-10-07 14:51:00,
2013-10-07 10:56:00,49.6,36.3,27.76,WSW,240,3.0,5.0,60,0.00,,,0.00,Weather View 32 v70,2013-10-07 14:56:00,
2013-10-07 11:01:00,49.8,36.9,27.76,SW,218,3.0,5.0,61,0.00,,,0.00,Weather View 32 v70,2013-10-07 15:01:00,
2013-10-07 11:06:00,49.6,36.7,27.76,West,261,3.0,6.0,61,0.00,,,0.00,Weather View 32 v70,2013-10-07 15:06:00,
2013-10-07 11:11:00,49.8,36.9,27.79,South,191,6.0,6.0,61,0.00,,,0.00,Weather View 32 v70,2013-10-07 15:11:00,
2013-10-07 11:16:00,50.0,37.1,27.79,SSW,205,4.0,6.0,61,0.00,,,0.00,Weather View 32 v70,2013-10-07 15:16:00,
2013-10-07 11:21:00,50.4,36.5,27.79,SSW,193,4.0,6.0,59,0.00,,,0.00,Weather View 32 v70,2013-10-07 15:21:00,
2013-10-07 11:26:00,50.5,37.6,27.79,SSW,207,3.0,6.0,61,0.00,,,0.00,Weather View 32 v70,2013-10-07 15:26:00,
2013-10-07 11:31:00,50.9,37.5,27.79,South,178,6.0,6.0,60,0.00,,,0.00,Weather View 32 v70,2013-10-07 15:31:00,
2013-10-07 11:36:00,51.1,37.2,27.79,WNW,295,0.0,6.0,59,0.00,,,0.00,Weather View 32 v70,2013-10-07 15:36:00,
2013-10-07 11:41:00,51.6,38.6,27.79,SW,219,4.0,6.0,61,0.00,,,0.00,Weather View 32 v70,2013-10-07 15:41:00,
2013-10-07 11:46:00,51.8,37.9,27.79,SSW,201,3.0,6.0,59,0.00,,,0.00,Weather View 32 v70,2013-10-07 15:46:00,
2013-10-07 11:51:00,52.0,38.1,27.79,North,9,3.0,6.0,59,0.00,,,0.00,Weather View 32 v70,2013-10-07 15:51:00,
2013-10-07 11:56:00,52.2,37.4,27.79,SSW,208,3.0,6.0,57,0.00,,,0.00,Weather View 32 v70,2013-10-07 15:56:00,
2013-10-07 12:01:00,52.2,37.8,27.79,SSW,203,2.0,6.0,58,0.00,,,0.00,Weather View 32 v70,2013-10-07 16:01:00,
2013-10-07 12:06:00,52.7,37.0,27.79,SSW,194,4.0,8.0,55,0.00,,,0.00,Weather View 32 v70,2013-10-07 16:06:00,
2013-10-07 12:11:00,53.1,39.1,27.79,NW,324,4.0,8.0,59,0.00,,,0.00,Weather View 32 v70,2013-10-07 16:11:00,
2013-10-07 12:16:00,53.1,38.6,27.79,SSW,208,4.0,8.0,58,0.00,,,0.00,Weather View 32 v70,2013-10-07 16:16:00,
2013-10-07 12:21:00,53.1,37.3,27.79,North,357,4.0,8.0,55,0.00,,,0.00,Weather View 32 v70,2013-10-07 16:21:00,
2013-10-07 12:26:00,53.4,38.1,27.79,SW,222,5.0,8.0,56,0.00,,,0.00,Weather View 32 v70,2013-10-07 16:26:00,
2013-10-07 12:31:00,53.4,37.2,27.79,SSW,195,4.0,8.0,54,0.00,,,0.00,Weather View 32 v70,2013-10-07 16:31:00,
2013-10-07 12:36:00,53.4,38.1,27.79,SSW,201,4.0,8.0,56,0.00,,,0.00,Weather View 32 v70,2013-10-07 16:36:00,
2013-10-07 12:41:00,53.4,38.5,27.79,WNW,295,4.0,8.0,57,0.00,,,0.00,Weather View 32 v70,2013-10-07 16:41:00,
2013-10-07 12:46:00,53.4,37.2,27.79,SSW,212,5.0,8.0,54,0.00,,,0.00,Weather View 32 v70,2013-10-07 16:46:00,
2013-10-07 12:51:00,53.6,37.8,27.79,SW,221,5.0,8.0,55,0.00,,,0.00,Weather View 32 v70,2013-10-07 16:51:00,
2013-10-07 12:56:00,53.6,37.3,27.79,SSW,208,3.0,8.0,54,0.00,,,0.00,Weather View 32 v70,2013-10-07 16:56:00,
2013-10-07 13:01:00,53.4,37.6,27.79,SW,221,3.0,8.0,55,0.00,,,0.00,Weather View 32 v70,2013-10-07 17:01:00,
2013-10-07 13:06:00,53.4,37.6,27.79,South,191,5.0,7.0,55,0.00,,,0.00,Weather View 32 v70,2013-10-07 17:06:00,
2013-10-07 13:11:00,53.4,38.1,27.79,SSW,201,5.0,7.0,56,0.00,,,0.00,Weather View 32 v70,2013-10-07 17:11:00,
2013-10-07 13:16:00,53.6,38.3,27.79,SSW,199,3.0,7.0,56,0.00,,,0.00,Weather View 32 v70,2013-10-07 17:16:00,
2013-10-07 13:21:00,53.4,39.0,27.79,SW,222,3.0,7.0,58,0.00,,,0.00,Weather View 32 v70,2013-10-07 17:21:00,
2013-10-07 13:26:00,53.4,39.9,27.79,WSW,247,5.0,6.0,60,0.00,,,0.00,Weather View 32 v70,2013-10-07 17:26:00,
2013-10-07 13:31:00,53.2,39.7,27.79,SSW,208,4.0,6.0,60,0.00,,,0.00,Weather View 32 v70,2013-10-07 17:31:00,
2013-10-07 13:36:00,53.2,39.7,27.79,West,276,4.0,8.0,60,0.00,,,0.00,Weather View 32 v70,2013-10-07 17:36:00,
2013-10-07 13:41:00,53.2,40.5,27.79,SSW,205,6.0,8.0,62,0.00,,,0.00,Weather View 32 v70,2013-10-07 17:41:00,
2013-10-07 13:46:00,53.1,42.0,27.79,SSW,213,5.0,8.0,66,0.00,,,0.00,Weather View 32 v70,2013-10-07 17:46:00,
2013-10-07 13:51:00,52.9,43.3,27.79,SSW,198,3.0,9.0,70,0.00,,,0.00,Weather View 32 v70,2013-10-07 17:51:00,
2013-10-07 13:56:00,52.9,44.1,27.82,SW,229,3.0,9.0,72,0.00,,,0.00,Weather View 32 v70,2013-10-07 17:56:00,
2013-10-07 14:01:00,52.9,44.8,27.82,SSW,208,4.0,9.0,74,0.00,,,0.00,Weather View 32 v70,2013-10-07 18:01:00,
2013-10-07 14:06:00,53.1,45.3,27.82,WSW,253,4.0,9.0,75,0.00,,,0.00,Weather View 32 v70,2013-10-07 18:06:00,
2013-10-07 14:11:00,53.1,45.3,27.82,SSW,196,4.0,9.0,75,0.00,,,0.00,Weather View 32 v70,2013-10-07 18:11:00,
2013-10-07 14:16:00,53.1,45.3,27.82,SSW,212,4.0,9.0,75,0.00,,,0.00,Weather View 32 v70,2013-10-07 18:16:00,
2013-10-07 14:21:00,52.9,45.2,27.82,ESE,120,3.0,9.0,75,0.00,,,0.00,Weather View 32 v70,2013-10-07 18:21:00,
2013-10-07 14:26:00,53.1,45.7,27.82,SE,130,3.0,9.0,76,0.00,,,0.00,Weather View 32 v70,2013-10-07 18:26:00,
2013-10-07 14:31:00,53.1,46.4,27.82,SSW,194,4.0,9.0,78,0.00,,,0.00,Weather View 32 v70,2013-10-07 18:31:00,
2013-10-07 14:36:00,53.1,47.0,27.82,SSE,158,0.0,9.0,80,0.00,,,0.00,Weather View 32 v70,2013-10-07 18:36:00,
2013-10-07 14:41:00,53.1,47.4,27.82,SSW,202,0.0,9.0,81,0.00,,,0.00,Weather View 32 v70,2013-10-07 18:41:00,
2013-10-07 14:46:00,53.1,47.7,27.82,West,275,0.0,9.0,82,0.04,,,0.04,Weather View 32 v70,2013-10-07 18:46:00,
2013-10-07 14:51:00,53.2,47.9,27.82,SSW,200,0.0,6.0,82,0.04,,,0.04,Weather View 32 v70,2013-10-07 18:51:00,
2013-10-07 14:56:00,53.2,48.2,27.82,South,171,3.0,6.0,83,0.04,,,0.04,Weather View 32 v70,2013-10-07 18:56:00,
2013-10-07 15:01:00,53.6,48.6,27.82,SW,227,0.0,6.0,83,0.04,,,0.04,Weather View 32 v70,2013-10-07 19:01:00,
2013-10-07 15:06:00,54.1,49.1,27.82,NW,325,2.0,6.0,83,0.04,,,0.04,Weather View 32 v70,2013-10-07 19:06:00,
2013-10-07 15:11:00,54.7,49.6,27.82,WSW,248,0.0,6.0,83,0.04,,,0.04,Weather View 32 v70,2013-10-07 19:11:00,
2013-10-07 15:16:00,54.7,49.3,27.82,West,275,0.0,6.0,82,0.04,,,0.04,Weather View 32 v70,2013-10-07 19:16:00,
2013-10-07 15:21:00,54.9,49.1,27.82,West,268,0.0,6.0,81,0.04,,,0.04,Weather View 32 v70,2013-10-07 19:21:00,
2013-10-07 15:26:00,55.0,48.6,27.85,West,266,0.0,6.0,79,0.04,,,0.04,Weather View 32 v70,2013-10-07 19:26:00,
2013-10-07 15:31:00,55.0,48.6,27.85,West,270,0.0,6.0,79,0.04,,,0.04,Weather View 32 v70,2013-10-07 19:31:00,
2013-10-07 15:36:00,54.9,46.7,27.85,WNW,291,0.0,6.0,74,0.04,,,0.04,Weather View 32 v70,2013-10-07 19:36:00,
2013-10-07 15:41:00,55.0,46.2,27.85,NNW,348,4.0,6.0,72,0.04,,,0.04,Weather View 32 v70,2013-10-07 19:41:00,
2013-10-07 15:46:00,55.4,45.0,27.85,NW,304,3.0,11.0,68,0.00,,,0.04,Weather View 32 v70,2013-10-07 19:46:00,
2013-10-07 15:51:00,55.6,44.8,27.85,SW,216,0.0,11.0,67,0.00,,,0.04,Weather View 32 v70,2013-10-07 19:51:00,
2013-10-07 15:56:00,55.8,42.9,27.88,North,353,0.0,11.0,62,0.00,,,0.04,Weather View 32 v70,2013-10-07 19:56:00,
2013-10-07 16:01:00,55.8,42.9,27.88,NW,323,0.0,11.0,62,0.00,,,0.04,Weather View 32 v70,2013-10-07 20:01:00,
2013-10-07 16:06:00,55.9,39.0,27.88,NNW,327,4.0,11.0,53,0.00,,,0.04,Weather View 32 v70,2013-10-07 20:06:00,
2013-10-07 16:11:00,56.1,39.2,27.88,NW,314,4.0,11.0,53,0.00,,,0.04,Weather View 32 v70,2013-10-07 20:11:00,
2013-10-07 16:16:00,55.9,38.0,27.88,West,276,0.0,11.0,51,0.00,,,0.04,Weather View 32 v70,2013-10-07 20:16:00,
2013-10-07 16:21:00,55.8,36.8,27.88,WSW,247,5.0,11.0,49,0.00,,,0.04,Weather View 32 v70,2013-10-07 20:21:00,
2013-10-07 16:26:00,55.9,36.5,27.88,NNW,338,2.0,11.0,48,0.00,,,0.04,Weather View 32 v70,2013-10-07 20:26:00,
2013-10-07 16:31:00,55.9,35.4,27.88,NNW,336,3.0,11.0,46,0.00,,,0.04,Weather View 32 v70,2013-10-07 20:31:00,
2013-10-07 16:36:00,55.9,36.0,27.88,NNE,12,4.0,11.0,47,0.00,,,0.04,Weather View 32 v70,2013-10-07 20:36:00,
2013-10-07 16:41:00,55.8,35.8,27.88,North,6,3.0,11.0,47,0.00,,,0.04,Weather View 32 v70,2013-10-07 20:41:00,
2013-10-07 16:46:00,55.6,35.6,27.88,East,84,0.0,8.0,47,0.00,,,0.04,Weather View 32 v70,2013-10-07 20:46:00,
2013-10-07 16:51:00,55.6,34.0,27.88,North,0,0.0,8.0,44,0.00,,,0.04,Weather View 32 v70,2013-10-07 20:51:00,
2013-10-07 16:56:00,55.8,34.7,27.91,WNW,287,3.0,8.0,45,0.00,,,0.04,Weather View 32 v70,2013-10-07 20:56:00,
2013-10-07 17:01:00,55.9,33.1,27.91,South,171,3.0,8.0,42,0.00,,,0.04,Weather View 32 v70,2013-10-07 21:01:00,
2013-10-07 17:06:00,55.9,34.3,27.91,NNW,327,5.0,8.0,44,0.00,,,0.04,Weather View 32 v70,2013-10-07 21:06:00,
2013-10-07 17:11:00,55.9,33.1,27.91,ENE,58,3.0,8.0,42,0.00,,,0.04,Weather View 32 v70,2013-10-07 21:11:00,
2013-10-07 17:16:00,56.1,33.9,27.91,ENE,74,2.0,8.0,43,0.00,,,0.04,Weather View 32 v70,2013-10-07 21:16:00,
2013-10-07 17:21:00,56.7,34.9,27.91,ESE,105,5.0,8.0,44,0.00,,,0.04,Weather View 32 v70,2013-10-07 21:21:00,
2013-10-07 17:26:00,57.4,33.8,27.88,North,0,2.0,8.0,41,0.00,,,0.04,Weather View 32 v70,2013-10-07 21:26:00,
2013-10-07 17:31:00,57.4,31.9,27.88,NW,307,4.0,8.0,38,0.00,,,0.04,Weather View 32 v70,2013-10-07 21:31:00,
2013-10-07 17:36:00,57.2,31.8,27.88,North,353,4.0,8.0,38,0.00,,,0.04,Weather View 32 v70,2013-10-07 21:36:00,
2013-10-07 17:41:00,56.8,32.7,27.91,North,353,0.0,8.0,40,0.00,,,0.04,Weather View 32 v70,2013-10-07 21:41:00,
2013-10-07 17:46:00,56.5,33.6,27.91,North,3,0.0,8.0,42,0.00,,,0.04,Weather View 32 v70,2013-10-07 21:46:00,
2013-10-07 17:51:00,56.3,34.6,27.91,North,0,0.0,8.0,44,0.00,,,0.04,Weather View 32 v70,2013-10-07 21:51:00,
2013-10-07 17:56:00,56.1,34.5,27.94,ENE,72,0.0,8.0,44,0.00,,,0.04,Weather View 32 v70,2013-10-07 21:56:00,
2013-10-07 18:01:00,55.9,34.3,27.94,West,273,0.0,8.0,44,0.00,,,0.04,Weather View 32 v70,2013-10-07 22:01:00,
2013-10-07 18:06:00,55.8,34.7,27.94,NNE,16,0.0,8.0,45,0.00,,,0.04,Weather View 32 v70,2013-10-07 22:06:00,
2013-10-07 18:11:00,55.8,35.2,27.94,NE,35,0.0,8.0,46,0.00,,,0.04,Weather View 32 v70,2013-10-07 22:11:00,
2013-10-07 18:16:00,55.6,35.1,27.94,NNE,33,0.0,8.0,46,0.00,,,0.04,Weather View 32 v70,2013-10-07 22:16:00,
2013-10-07 18:21:00,55.4,34.4,27.94,NW,310,0.0,8.0,45,0.00,,,0.04,Weather View 32 v70,2013-10-07 22:21:00,
2013-10-07 18:26:00,55.0,34.0,27.94,West,259,0.0,6.0,45,0.00,,,0.04,Weather View 32 v70,2013-10-07 22:26:00,
2013-10-07 18:31:00,54.7,34.3,27.94,West,259,0.0,6.0,46,0.00,,,0.04,Weather View 32 v70,2013-10-07 22:31:00,
2013-10-07 18:36:00,54.3,34.5,27.94,West,259,0.0,6.0,47,0.00,,,0.04,Weather View 32 v70,2013-10-07 22:36:00,
2013-10-07 18:41:00,54.0,34.7,27.94,North,353,0.0,6.0,48,0.00,,,0.04,Weather View 32 v70,2013-10-07 22:41:00,
2013-10-07 18:46:00,54.0,34.7,27.94,West,274,2.0,4.0,48,0.00,,,0.04,Weather View 32 v70,2013-10-07 22:46:00,
2013-10-07 18:51:00,53.8,34.0,27.94,ENE,73,0.0,4.0,47,0.00,,,0.04,Weather View 32 v70,2013-10-07 22:51:00,
2013-10-07 18:56:00,53.6,33.8,27.94,SSW,206,0.0,4.0,47,0.00,,,0.04,Weather View 32 v70,2013-10-07 22:56:00,
2013-10-07 19:01:00,53.6,33.8,27.94,SSW,208,0.0,4.0,47,0.00,,,0.04,Weather View 32 v70,2013-10-07 23:01:00,
2013-10-07 19:06:00,53.2,33.5,27.94,SSW,208,0.0,4.0,47,0.00,,,0.04,Weather View 32 v70,2013-10-07 23:06:00,
2013-10-07 19:11:00,52.9,33.7,27.96,SSW,208,0.0,4.0,48,0.00,,,0.04,Weather View 32 v70,2013-10-07 23:11:00,
2013-10-07 19:16:00,52.2,34.5,27.96,SSW,208,0.0,4.0,51,0.00,,,0.04,Weather View 32 v70,2013-10-07 23:16:00,
2013-10-07 19:21:00,51.6,34.5,27.96,SSW,208,0.0,4.0,52,0.00,,,0.04,Weather View 32 v70,2013-10-07 23:21:00,
2013-10-07 19:26:00,51.3,34.7,27.96,SSW,208,0.0,4.0,53,0.00,,,0.04,Weather View 32 v70,2013-10-07 23:26:00,
2013-10-07 19:31:00,51.1,35.0,27.96,SSW,208,0.0,4.0,54,0.00,,,0.04,Weather View 32 v70,2013-10-07 23:31:00,
2013-10-07 19:36:00,51.1,35.0,27.96,SSE,150,0.0,4.0,54,0.00,,,0.04,Weather View 32 v70,2013-10-07 23:36:00,
2013-10-07 19:41:00,51.1,34.5,27.96,SSE,148,0.0,4.0,53,0.00,,,0.04,Weather View 32 v70,2013-10-07 23:41:00,
2013-10-07 19:46:00,51.1,34.5,27.96,SSE,148,0.0,4.0,53,0.00,,,0.04,Weather View 32 v70,2013-10-07 23:46:00,
2013-10-07 19:51:00,51.1,34.5,27.96,South,172,0.0,4.0,53,0.00,,,0.04,Weather View 32 v70,2013-10-07 23:51:00,
2013-10-07 19:56:00,51.1,34.5,27.99,South,172,0.0,0.0,53,0.00,,,0.04,Weather View 32 v70,2013-10-07 23:56:00,
2013-10-07 20:01:00,51.1,34.5,27.99,South,172,0.0,0.0,53,0.00,,,0.04,Weather View 32 v70,2013-10-08 00:01:00,
2013-10-07 20:06:00,50.9,34.3,27.99,SE,130,0.0,0.0,53,0.00,,,0.04,Weather View 32 v70,2013-10-08 00:06:00,
2013-10-07 20:11:00,50.7,34.6,27.96,SE,130,0.0,0.0,54,0.00,,,0.04,Weather View 32 v70,2013-10-08 00:11:00,
2013-10-07 20:16:00,50.7,34.2,27.96,SE,130,0.0,0.0,53,0.00,,,0.04,Weather View 32 v70,2013-10-08 00:16:00,
2013-10-07 20:21:00,50.5,34.5,27.96,SE,130,0.0,0.0,54,0.00,,,0.04,Weather View 32 v70,2013-10-08 00:21:00,
2013-10-07 20:26:00,50.2,34.1,27.99,SE,130,0.0,0.0,54,0.00,,,0.04,Weather View 32 v70,2013-10-08 00:26:00,
2013-10-07 20:31:00,50.0,34.4,27.99,SE,130,0.0,0.0,55,0.00,,,0.04,Weather View 32 v70,2013-10-08 00:31:00,
2013-10-07 20:36:00,49.8,35.2,27.99,ESE,116,0.0,0.0,57,0.00,,,0.04,Weather View 32 v70,2013-10-08 00:36:00,
2013-10-07 20:41:00,49.6,35.4,28.02,ESE,116,0.0,0.0,58,0.00,,,0.04,Weather View 32 v70,2013-10-08 00:41:00,
2013-10-07 20:46:00,49.6,35.4,28.02,ESE,117,0.0,0.0,58,0.00,,,0.04,Weather View 32 v70,2013-10-08 00:46:00,
2013-10-07 20:51:00,49.6,35.4,28.02,NNE,24,0.0,0.0,58,0.00,,,0.04,Weather View 32 v70,2013-10-08 00:51:00,
2013-10-07 20:56:00,49.8,35.6,28.02,NNE,24,0.0,0.0,58,0.00,,,0.04,Weather View 32 v70,2013-10-08 00:56:00,
2013-10-07 21:01:00,49.6,35.4,28.02,NNE,33,0.0,0.0,58,0.00,,,0.04,Weather View 32 v70,2013-10-08 01:01:00,
2013-10-07 21:06:00,49.5,35.3,28.02,NNE,33,0.0,0.0,58,0.00,,,0.04,Weather View 32 v70,2013-10-08 01:06:00,
2013-10-07 21:11:00,49.3,35.1,28.02,NE,40,0.0,0.0,58,0.00,,,0.04,Weather View 32 v70,2013-10-08 01:11:00,
2013-10-07 21:16:00,48.7,35.5,28.02,NE,40,0.0,0.0,60,0.00,,,0.04,Weather View 32 v70,2013-10-08 01:16:00,
2013-10-07 21:21:00,48.2,35.4,28.02,NE,40,0.0,0.0,61,0.00,,,0.04,Weather View 32 v70,2013-10-08 01:21:00,
2013-10-07 21:26:00,47.7,35.3,28.02,NE,40,0.0,0.0,62,0.00,,,0.04,Weather View 32 v70,2013-10-08 01:26:00,
2013-10-07 21:31:00,47.3,35.3,28.02,NE,40,0.0,0.0,63,0.00,,,0.04,Weather View 32 v70,2013-10-08 01:31:00,
2013-10-07 21:36:00,47.1,35.9,28.02,NE,40,0.0,0.0,65,0.00,,,0.04,Weather View 32 v70,2013-10-08 01:36:00,
2013-10-07 21:41:00,46.9,36.2,28.05,NE,40,0.0,0.0,66,0.00,,,0.04,Weather View 32 v70,2013-10-08 01:41:00,
2013-10-07 21:46:00,46.4,36.0,28.05,NE,40,0.0,0.0,67,0.00,,,0.04,Weather View 32 v70,2013-10-08 01:46:00,
2013-10-07 21:51:00,46.2,36.2,28.05,NE,40,0.0,0.0,68,0.00,,,0.04,Weather View 32 v70,2013-10-08 01:51:00,
2013-10-07 21:56:00,46.0,36.4,28.05,NE,40,0.0,0.0,69,0.00,,,0.04,Weather View 32 v70,2013-10-08 01:56:00,
2013-10-07 22:01:00,45.9,36.3,28.05,NE,40,0.0,0.0,69,0.00,,,0.04,Weather View 32 v70,2013-10-08 02:01:00,
2013-10-07 22:06:00,45.7,36.8,28.05,NE,40,0.0,0.0,71,0.00,,,0.04,Weather View 32 v70,2013-10-08 02:06:00,
2013-10-07 22:11:00,45.7,37.2,28.05,NE,40,0.0,0.0,72,0.00,,,0.04,Weather View 32 v70,2013-10-08 02:11:00,
2013-10-07 22:16:00,45.7,37.5,28.05,NE,40,0.0,0.0,73,0.00,,,0.04,Weather View 32 v70,2013-10-08 02:16:00,
2013-10-07 22:21:00,45.7,37.9,28.05,NE,40,0.0,0.0,74,0.00,,,0.04,Weather View 32 v70,2013-10-08 02:21:00,
2013-10-07 22:26:00,45.7,37.9,28.05,NE,40,0.0,0.0,74,0.00,,,0.04,Weather View 32 v70,2013-10-08 02:26:00,
2013-10-07 22:31:00,45.7,38.2,28.05,NE,40,0.0,0.0,75,0.00,,,0.04,Weather View 32 v70,2013-10-08 02:31:00,
2013-10-07 22:36:00,46.4,39.2,28.05,NE,40,0.0,0.0,76,0.00,,,0.04,Weather View 32 v70,2013-10-08 02:36:00,
2013-10-07 22:41:00,46.8,39.9,28.05,NE,40,0.0,0.0,77,0.00,,,0.04,Weather View 32 v70,2013-10-08 02:41:00,
2013-10-07 22:46:00,46.9,39.8,28.05,NE,40,0.0,0.0,76,0.00,,,0.04,Weather View 32 v70,2013-10-08 02:46:00,
2013-10-07 22:51:00,47.1,39.9,28.05,NE,40,0.0,0.0,76,0.00,,,0.04,Weather View 32 v70,2013-10-08 02:51:00,
2013-10-07 22:56:00,47.3,39.8,28.05,NE,40,0.0,0.0,75,0.00,,,0.04,Weather View 32 v70,2013-10-08 02:56:00,
2013-10-07 23:01:00,47.3,39.4,28.05,NE,40,0.0,0.0,74,0.00,,,0.04,Weather View 32 v70,2013-10-08 03:01:00,
2013-10-07 23:06:00,47.5,39.2,28.05,NE,40,0.0,0.0,73,0.00,,,0.04,Weather View 32 v70,2013-10-08 03:06:00,
2013-10-07 23:11:00,47.5,39.2,28.05,NE,40,0.0,0.0,73,0.00,,,0.04,Weather View 32 v70,2013-10-08 03:11:00,
2013-10-07 23:16:00,47.5,38.9,28.05,NE,40,0.0,0.0,72,0.00,,,0.04,Weather View 32 v70,2013-10-08 03:16:00,
2013-10-07 23:21:00,47.3,38.7,28.05,NE,40,0.0,0.0,72,0.00,,,0.04,Weather View 32 v70,2013-10-08 03:21:00,
2013-10-07 23:26:00,47.1,38.5,28.08,NE,40,0.0,0.0,72,0.00,,,0.04,Weather View 32 v70,2013-10-08 03:26:00,
2013-10-07 23:31:00,46.9,38.4,28.08,NE,40,0.0,0.0,72,0.00,,,0.04,Weather View 32 v70,2013-10-08 03:31:00,
2013-10-07 23:36:00,46.4,37.9,28.08,NE,40,0.0,0.0,72,0.00,,,0.04,Weather View 32 v70,2013-10-08 03:36:00,
2013-10-07 23:41:00,46.4,38.2,28.08,NE,40,0.0,0.0,73,0.00,,,0.04,Weather View 32 v70,2013-10-08 03:41:00,
2013-10-07 23:46:00,46.6,38.7,28.08,NE,40,0.0,0.0,74,0.00,,,0.04,Weather View 32 v70,2013-10-08 03:46:00,
2013-10-07 23:51:00,46.9,39.4,28.08,NE,40,0.0,0.0,75,0.00,,,0.04,Weather View 32 v70,2013-10-08 03:51:00,
2013-10-07 23:56:00,46.9,39.4,28.08,NE,40,0.0,0.0,75,0.00,,,0.04,Weather View 32 v70,2013-10-08 03:56:00,